Orbital Elements at Epoch 2459200.5 (2020-Dec-17.0) TDB
Reference: JPL 26 (heliocentric ecliptic J2000)
Element | Value | Uncertainty (1-sigma) | Units |
e | .1054861113221983 | 2.8067e-08 | |
a | 2.27668433213936 | 6.7967e-09 | au |
q | 2.036525755233803 | 6.4789e-08 | au |
i | 6.800036565449845 | 3.5142e-06 | deg |
node | 60.5533663435861 | 3.2674e-05 | deg |
peri | 226.2590946357243 | 4.0922e-05 | deg |
M | 307.5309851813595 | 2.7169e-05 | deg |
tp | 2459383.374463088654 (2021-Jun-17.87446309) | 9.4998e-05 | TDB |
period | 1254.73685639942 3.44 | 5.6187e-06 1.538e-08 | d yr |
n | .2869127484092978 | 1.2848e-09 | deg/d |
Q | 2.516842909044918 | 7.5137e-09 | au |
|
| | Orbit Determination Parameters
Additional Information
|